Regional Weather Roundup
Issued by NWS

Home | Current Version | Previous Version | Text Only | Print | Product List | Glossary Off
Versions: 1 2 3 4 5 6 7 8 9 10 11 12 13 14 15 16 17 18 19 20 21 22 23 24 25 26 27 28 29 30 31 32 33 34 35 36 37 38 39 40 41 42 43 44 45 46 47 48 49 50

000
ASUS43 KIND 310609
RWRIN

WEATHER ROUNDUP FOR INDIANA
NATIONAL WEATHER SERVICE INDIANAPOLIS IN
200 AM EDT MON AUG 31 2015

NOTE: "FAIR" INDICATES FEW OR NO CLOUDS BELOW 12,000 FEET WITH NO
SIGNIFICANT WEATHER AND/OR OBSTRUCTIONS TO VISIBILITY.

* - STATION DOES NOT REPORT WEATHER SUCH AS PRECIPITATION OR FOG.

+ - STATION NOT QUALITY CONTROLLED BY THE NATIONAL WEATHER SERVICE.
    USE DATA WITH CAUTION...ESPECIALLY DEWPOINT AND RELATIVE
    HUMIDITY OBSERVATIONS.

INZ001>003-010>013-019-020-310700-
NORTHWEST INDIANA

CITY           SKY/WX    TMP DP  RH WIND       PRES   REMARKS
GARY /AIRPORT/ FOG       61  59  94 CALM      30.05S VSB 1
KNOX *+          N/A     59  59 100 CALM      30.04S VSB 1/4
LA PORTE +     FOG      N/A N/A N/A CALM      30.06S VSB 1/4
MICHIGAN CITY+ FOG       61  61 100 CALM      30.05S VSB 1
MONTICELLO +     N/A     68  68 100 CALM      30.04S FOG
6HR MIN TEMP:  68; 6HR MAX TEMP:  76;

RENSSELAER +   FOG       64  64 100 CALM      30.05S VSB 3/4
VALPARAISO     FOG       63  62  97 NE3       30.05F VSB 1/4
6HR MIN TEMP:  62; 6HR MAX TEMP:  72;


$$

LMZ046-743>745-310700-
SOUTHERN LAKE MICHIGAN

STATION/POSITION TIME  TEMP    WIND        PRES    WAVE
                       AIR SEA DIR/SP/G            HT
                 (UTC) (F)     (DEG/KT/KT) (MB)    (FT)
BURNS HARBOR     0500   67      70/  5/  7 1017.6S
MICHIGAN CITY    0500   67      70/  6/  7   N/A
5NW MICH CITY    0600   68 71  110/  6/  6   N/A     1

$$

INZ004-005-014>016-021>024-310700-
NORTH CENTRAL INDIANA

CITY           SKY/WX    TMP DP  RH WIND       PRES   REMARKS
GOSHEN         FOG       64  63  96 CALM      30.05S VSB 1/2
6HR MIN TEMP:  63; 6HR MAX TEMP:  71; 6HR PCP: TRACE;

LOGANSPORT +   FOG       64  63  94 CALM      30.06S VSB 1
PERU/GRISSOM   FAIR      68  66  93 CALM      30.05S
6HR MIN TEMP:  68; 6HR MAX TEMP:  77;

ROCHESTER +    FOG       68  68 100 CALM      30.06S VSB 1/2
SOUTH BEND     FAIR      61  60  97 CALM      30.06S FOG
6HR MIN TEMP:  60; 6HR MAX TEMP:  72;

WARSAW +       FOG       63  63 100 CALM      30.06S VSB 1/4

$$

INZ006>009-017-018-025>027-310700-
NORTHEAST INDIANA

CITY           SKY/WX    TMP DP  RH WIND       PRES   REMARKS
ANGOLA *+      CLOUDY    64  64 100 CALM      30.06S VSB 0
AUBURN +       FOG       68  64  88 CALM      30.07S VSB 1/2
FORT WAYNE     FAIR      67  65  93 S3        30.06F FOG
6HR MIN TEMP:  67; 6HR MAX TEMP:  78;

HUNTINGTON +   FAIR      66  63  89 CALM      30.05F FOG
6HR MIN TEMP:  66; 6HR MAX TEMP:  79;


$$

INZ028-029-035-036-043>045-051>053-310700-
WEST CENTRAL INDIANA

CITY           SKY/WX    TMP DP  RH WIND       PRES   REMARKS
CRAWFORDSVL +  FAIR      63  63 100 S3        30.06S
6HR MIN TEMP:  63; 6HR MAX TEMP:  73;

GREENCASTLE +  FAIR      66  63  88 CALM      30.07S FOG
LAFAYETTE      FAIR      69  66  90 CALM      30.04S
6HR MIN TEMP:  68; 6HR MAX TEMP:  80;

TERRE HAUTE    FAIR      67  66  97 CALM      30.05S FOG
6HR MIN TEMP:  66; 6HR MAX TEMP:  81;


$$

INZ030>032-037>040-046>048-054>057-064-065-310700-
CENTRAL INDIANA

CITY           SKY/WX    TMP DP  RH WIND       PRES   REMARKS
FRANKFORT +    FAIR     N/A N/A N/A CALM      30.07F
GREENWOOD *+   FAIR      70  64  83 S3        30.08S
INDIANAPOLIS   FAIR      70  65  84 CALM      30.05F
6HR MIN TEMP:  70; 6HR MAX TEMP:  79;

-EAGLE CREEK   FAIR      70  67  90 CALM      30.06S
6HR MIN TEMP:  69; 6HR MAX TEMP:  80;

KOKOMO *+      FAIR      66  63  88 CALM      30.06S
6HR MIN TEMP:  66; 6HR MAX TEMP:  81;

MARION +       FAIR      65  59  81 CALM      30.07S
MT COMFORT *+  FAIR      66 N/A N/A CALM      30.08R
SHELBYVILLE    FAIR      70  65  84 S3        30.07R
6HR MIN TEMP:  70; 6HR MAX TEMP:  79;


$$

INZ033-034-041-042-049-050-058-059-310700-
EAST CENTRAL INDIANA

CITY           SKY/WX    TMP DP  RH WIND       PRES   REMARKS
MUNCIE         FAIR      70  66  87 SW6       30.07S
6HR MIN TEMP:  69; 6HR MAX TEMP:  77;


$$

INZ060-061-067>069-081>083-085>088-310700-
SOUTHWEST INDIANA

CITY           SKY/WX    TMP DP  RH WIND       PRES   REMARKS
EVANSVILLE     FAIR      71  66  84 CALM      30.07S
6HR MIN TEMP:  70; 6HR MAX TEMP:  81;

HUNTINGBURG *+ FAIR      70  64  83 CALM      30.07S
6HR MIN TEMP:  70; 6HR MAX TEMP:  81;

WASHINGTON +   FAIR      69  65  88 CALM      30.05S
6HR MIN TEMP:  69; 6HR MAX TEMP:  76; 6HR PCP:  0.01;


$$

INZ062-063-066-070>080-084-089>092-310700-
SOUTH CENTRAL AND SOUTHEAST INDIANA

CITY           SKY/WX    TMP DP  RH WIND       PRES   REMARKS
BLOOMINGTON    FAIR      67  65  93 CALM      30.07S FOG
6HR MIN TEMP:  67; 6HR MAX TEMP:  75;

MADISON *+     FAIR      66  64  94 CALM      30.10F
NORTH VERNON + FAIR      68  68 100 CALM      30.09S
SEYMOUR +      FAIR      68  64  88 CALM      30.07S

$$




USA.gov is the U.S. government's official web portal to all federal, state and local government web resources and services.